Tracking 19199 objects as of 25-Jun-2018
HD Live streaming from Space Station
objects crossing your sky now

FENGYUN 1C DEB

Track FENGYUN 1C DEB now!
10-day predictions


NORAD ID: 32431
Int'l Code: 1999-025DAT
Perigee: 792.3 km
Apogee: 895.4 km
Inclination: 99.5 °
Period: 101.6 minutes
Semi major axis: 7214 km
RCS: 0.0041 m2 (small)
Launch date: May 10, 1999
Source: People's Republic of China (PRC)
Launch site: Taiyaun Space Center, China (TSC)

Note: This is SATELLITE DEBRIS
aabbcc
Your satellite tracking list
Your tracking list is empty




NASA's NSSDC Master Catalog

Two Line Element Set (TLE):
1 32431U 99025DAT 18173.09450324 +.00000748 +00000-0 +39022-3 0  9993
2 32431 099.5487 115.8524 0071492 222.1594 196.6654 14.16645199230818
Source of the keplerian elements: AFSPC